Flag for U.S.A. Weather past 2 weeks in Sunnyvale, California, U.S.A.

Now
60 °F

Clear.


Feels Like: 60 °F
Forecast: 54 / 73 °F
Wind: No wind

Location: Moffett Field

Current Time: Oct 24, 2014 at 1:16:38 AM

Latest Report: Oct 24, 2014 at 12:56 AM


Visibility: 10 mi

Pressure: 29.99 "Hg

Humidity: 90%

Dew point: 57 °F

Location of SunnyvaleLocation

Historic Weather in Sunnyvale — Graph

°F

Sunnyvale temperature yesterday

Maximum temperature yesterday: 74 °F (at 12:56 PM)
Minimum temperature yesterday: 58 °F (at 3:56 AM)
Average temperature yesterday: 65 °F

Past Weeks' High & Low Weather Summary

 TemperatureHumidityPressure
High89 °F (Oct 12, 3:56 PM)100% (Oct 9, 1:56 AM)30.13 "Hg (Oct 9, 1:56 AM)
Low52 °F (Oct 22, 6:56 AM)11% (Oct 12, 4:56 PM)29.83 "Hg (Oct 14, 6:03 PM)
Average65 °F71%29.99 "Hg
* Reported Oct 8 11:56 PM — Oct 23 11:56 PM, Sunnyvale, Weather by CustomWeather, © 2014

Note: Actual official high and low records may vary slightly from our data, if they occured in-between our weather recording intervals... More about our weather records

Advertising

Sunnyvale weather history for previous 24 hours

 ConditionsComfort  
Time TempWeatherWind HumidityBarometerVisibility
11:56 PM
Oct 23
60 °FClear.No wind83%29.99 "Hg10 mi
10:56 PM62 °FClear.No wind80%29.99 "Hg10 mi
9:56 PM64 °FClear.No wind78%29.99 "Hg10 mi
8:56 PM65 °FClear.No wind81%29.98 "Hg10 mi
7:56 PM65 °FClear.3 mph94%29.98 "Hg10 mi
6:56 PM67 °FSunny.6 mph81%29.98 "Hg10 mi
5:56 PM69 °FSunny.8 mph68%29.98 "Hg10 mi
4:56 PM73 °FSunny.7 mph53%29.99 "Hg10 mi
3:56 PM72 °FSunny.8 mph52%30.00 "Hg10 mi
2:56 PM73 °FSunny.10 mph44%30.02 "Hg10 mi
1:56 PM74 °FSunny.8 mph45%30.04 "Hg10 mi
12:56 PM74 °FSunny.9 mph46%30.06 "Hg10 mi
11:56 AM72 °FSunny.5 mph52%30.08 "Hg10 mi
10:56 AM69 °FSunny.No wind63%30.09 "Hg10 mi
9:56 AM66 °FSunny.No wind78%30.10 "Hg10 mi
8:56 AM64 °FSunny.No wind78%30.09 "Hg10 mi
7:56 AM62 °FPassing clouds.No wind80%30.07 "Hg10 mi
6:56 AM60 °FOvercast.No wind83%30.06 "Hg10 mi
5:56 AM59 °FPassing clouds.No wind87%30.05 "Hg10 mi
4:56 AM58 °FPassing clouds.No wind90%30.05 "Hg10 mi
3:56 AM58 °FClear.No wind90%30.04 "Hg10 mi
2:56 AM59 °FClear.No wind84%30.05 "Hg10 mi
1:56 AM59 °FClear.3 mph87%30.05 "Hg10 mi
Weather by CustomWeather, © 2014

See weather overviewHow to use our weather pages